Mineral Wells, TX

8:29 PM CDT on April 26, 2017 (GMT -0500)
Mineral Wells

Weather History for KMWL - May, 2013

Change the Weather History Date:

Tuesday, May 21, 2013

  Actual Average Record
Temperature  
Mean Temperature 68 °F -  
Max Temperature 79 °F 83 °F 98 °F (2005)
Min Temperature 59 °F 62 °F 52 °F (2001)
Cooling Degree Days 4    
Growing Degree Days 18 (Base 50)    
Moisture  
Dew Point 61 °F    
Average Humidity 74    
Maximum Humidity 88    
Minimum Humidity 46    
Precipitation  
Precipitation 0.02 in - - ()
Sea Level Pressure  
Sea Level Pressure 29.75 in    
Wind  
Wind Speed 13 mph (SSE)    
Max Wind Speed 25 mph    
Max Gust Speed 43 mph    
Visibility 10 miles    
Events Rain    
Averages and records for this station are not official NWS values.
T = Trace of Precipitation, MM = Missing Value Source: NWS Daily Summary

Daily Weather History Graph

Daily Weather History Graph

Search for Another Location

Airport or City:

Trip Planner

Search our weather history database for the weather conditions in past years. The results will help you decide how hot, cold, wet, or windy it might be!

Date:

Astronomy

May. 21, 2013 Rise Set
Actual Time 6:29 AM CDT 8:28 PM CDT
Civil Twilight 6:01 AM CDT 8:56 PM CDT
Nautical Twilight 5:28 AM CDT 9:29 PM CDT
Astronomical Twilight 4:52 AM CDT 10:05 PM CDT
Moon 4:54 PM CDT (5/21) 3:45 AM CDT (5/21)
Length of Visible Light 14h 54m
Length of Day
13h 59m
Waxing Gibbous, 84% of the Moon is Illuminated
May 21
Waxing Gibbous
May 24
Full
May 31
Last Quarter
Jun 8
New
Jun 16
First Quarter

Hourly Weather History & Observations

Time (CDT) Temp. Dew Point Humidity Pressure Visibility Wind Dir Wind Speed Gust Speed Precip Events Conditions
12:53 AM 78.1 °F 64.9 °F 64% 29.68 in 10.0 mi South 20.7 mph 31.1 mph N/A   Clear
1:53 AM 75.9 °F 66.9 °F 74% 29.67 in 10.0 mi South 11.5 mph - N/A   Clear
2:53 AM 75.0 °F 66.9 °F 76% 29.66 in 10.0 mi SSE 11.5 mph - N/A   Clear
3:53 AM 73.9 °F 66.9 °F 79% 29.66 in 10.0 mi SSE 11.5 mph - N/A   Clear
4:53 AM 73.0 °F 66.9 °F 81% 29.67 in 10.0 mi SSE 11.5 mph - N/A   Partly Cloudy
5:36 AM 73.4 °F 68.0 °F 83% 29.72 in 10.0 mi SSE 5.8 mph - N/A   Mostly Cloudy
5:53 AM 73.0 °F 68.0 °F 84% 29.69 in 10.0 mi SSE 5.8 mph - N/A   Overcast
6:53 AM 72.0 °F 68.0 °F 87% 29.69 in 10.0 mi SE 10.4 mph - N/A   Mostly Cloudy
7:05 AM 71.6 °F 68.0 °F 88% 29.73 in 10.0 mi SSE 9.2 mph - N/A   Scattered Clouds
7:35 AM 71.6 °F 68.0 °F 88% 29.74 in 10.0 mi SSE 10.4 mph - N/A   Mostly Cloudy
7:53 AM 73.0 °F 68.0 °F 84% 29.70 in 10.0 mi SSE 12.7 mph 19.6 mph N/A   Overcast
8:53 AM 75.9 °F 66.9 °F 74% 29.72 in 10.0 mi South 13.8 mph 20.7 mph N/A   Overcast
9:53 AM 78.1 °F 66.9 °F 68% 29.73 in 10.0 mi SSW 11.5 mph 21.9 mph N/A   Overcast
10:53 AM 78.1 °F 66.9 °F 68% 29.71 in 10.0 mi South 15.0 mph - N/A   Overcast
11:53 AM 78.1 °F 66.9 °F 68% 29.71 in 10.0 mi South 12.7 mph - N/A   Overcast
12:53 PM 78.1 °F 68.0 °F 71% 29.74 in 8.0 mi West 19.6 mph 36.8 mph N/A   Overcast
1:00 PM 66.2 °F 60.8 °F 83% 29.80 in 8.0 mi NW 25.3 mph 42.6 mph 0.00 in Rain Light Rain
1:11 PM 60.8 °F 57.2 °F 88% 29.81 in 4.0 mi NW 20.7 mph 39.1 mph 0.01 in Rain Light Rain
1:24 PM 60.8 °F 57.2 °F 88% 29.82 in 10.0 mi NNW 17.3 mph 23.0 mph 0.01 in Rain Light Rain
1:34 PM 60.8 °F 57.2 °F 88% 29.82 in 10.0 mi NNW 13.8 mph 27.6 mph 0.01 in Rain Light Rain
1:53 PM 60.1 °F 55.9 °F 86% 29.81 in 10.0 mi NNW 16.1 mph - 0.01 in Rain Light Rain
2:53 PM 66.9 °F 57.0 °F 70% 29.79 in 10.0 mi NNW 19.6 mph 27.6 mph 0.00 in   Mostly Cloudy
3:53 PM 70.0 °F 55.0 °F 59% 29.77 in 10.0 mi North 19.6 mph 27.6 mph N/A   Scattered Clouds
4:53 PM 73.0 °F 52.0 °F 48% 29.74 in 10.0 mi NNW 19.6 mph 29.9 mph 0.01 in   Clear
5:53 PM 73.0 °F 51.1 °F 46% 29.77 in 10.0 mi North 13.8 mph - N/A   Clear
6:53 PM 72.0 °F 52.0 °F 49% 29.77 in 10.0 mi North 8.1 mph - N/A   Clear
7:53 PM 70.0 °F 52.0 °F 53% 29.79 in 10.0 mi North 8.1 mph - N/A   Clear
8:53 PM 66.0 °F 53.1 °F 63% 29.82 in 10.0 mi NE 4.6 mph - N/A   Clear
9:53 PM 64.0 °F 55.0 °F 73% 29.83 in 10.0 mi ENE 4.6 mph - N/A   Clear
10:53 PM 59.0 °F 55.0 °F 87% 29.85 in 10.0 mi Calm Calm - N/A   Clear
11:53 PM 59.0 °F 55.0 °F 87% 29.85 in 10.0 mi Calm Calm - N/A   Clear